Location: Home
(42.5358°N, 72.7383°W)
Time: 17:43:32
(UTC-05:00)

Tiros 1 - Pass Details

Date: 29 November 2021
Orbit: 629 x 664 km, 48.4° (Epoch: 18 January)

Event Time Altitude Azimuth Distance (km) Brightness Sun altitude
Rises 21:34:36 0° 265° (W) 2,936 - -56.6°
Reaches altitude 10° 21:36:59 10° 271° (W) 2,033 - -57.0°
Maximum altitude 21:41:32 48° 346° (NNW) 842 - -57.7°
Drops below altitude 10° 21:46:08 10° 62° (ENE) 2,059 - -58.5°
Sets 21:48:34 0° 68° (ENE) 2,977 - -58.8°
